Location: Bathurst
(33.4193°S, 149.5775°E)
Time: 22:44:40
(UTC+10:00)

Vanguard 3 - Pass Details

Date: 24 June 2021
Orbit: 508 x 3261 km, 33.4° (Epoch: 25 July)

Event Time Altitude Azimuth Distance (km) Brightness Sun altitude
Rises 22:42:16 0° 253° (WSW) 7,242 12.3 -69.4°
Reaches altitude 10° 22:47:23 10° 256° (WSW) 6,176 11.8 -70.4°
Enters shadow 22:55:00 28° 265° (W) 4,584 10.9 -71.8°
